Flag for Norway Weather past 2 weeks in Longyearbyen, Svalbard, Norway

Now
23 °F

Scattered clouds.


Feels Like: 16 °F
Forecast: 13 / 25 °F
Wind: 6 mph from North

Location: Svalbard Lufthavn

Current Time: Apr 26, 2015 at 3:57:33 PM

Latest Report: Apr 26, 2015 at 2:50 PM


Visibility: N/A

Pressure: 30.09 "Hg

Humidity: 68%

Dew point: 14 °F

Location of LongyearbyenLocation

Historic Weather in Longyearbyen — Graph

°F

Longyearbyen temperature yesterday

Maximum temperature yesterday: 27 °F (at 1:50 PM)
Minimum temperature yesterday: 19 °F (at 4:50 AM)
Average temperature yesterday: 23 °F

Past Weeks' High & Low Weather Summary

 TemperatureHumidityPressure
High43 °F (Apr 16, 5:50 PM)93% (Apr 18, 6:20 PM)30.33 "Hg (Apr 18, 6:20 PM)
Low9 °F (Apr 24, 1:50 AM)42% (Apr 24, 7:50 PM)29.33 "Hg (Apr 16, 11:50 PM)
Average25 °F70%29.68 "Hg
* Reported Apr 11 2:50 PM — Apr 26 2:50 PM, Longyearbyen, Weather by CustomWeather, © 2015

Note: Actual official high and low records may vary slightly from our data, if they occured in-between our weather recording intervals... More about our weather records

Advertising

Longyearbyen weather history for previous 24 hours

 ConditionsComfort  
Time TempWeatherWind HumidityBarometerVisibility
2:50 PM
Sun, Apr 26
23 °FScattered clouds.6 mph68%30.09 "HgN/A
1:50 PM23 °FPassing clouds.6 mph68%30.09 "HgN/A
12:50 PM23 °FPassing clouds.3 mph63%30.12 "HgN/A
11:50 AM23 °FPassing clouds.1 mph63%30.15 "HgN/A
10:50 AM23 °FSunny.No wind63%30.15 "Hg10 mi
9:50 AM19 °FSunny.7 mph73%30.15 "Hg10 mi
8:50 AM19 °FSunny.No wind68%30.18 "Hg10 mi
7:50 AM19 °FSunny.7 mph68%30.18 "Hg10 mi
6:50 AM18 °FPassing clouds.9 mph73%30.21 "HgN/A
5:50 AM18 °FPassing clouds.8 mph73%30.21 "HgN/A
4:50 AM18 °FSunny.7 mph73%30.21 "Hg10 mi
3:50 AM18 °FSunny.9 mph73%30.21 "Hg10 mi
2:50 AM19 °FSunny.3 mph68%30.24 "Hg10 mi
1:50 AM19 °FSunny.3 mph63%30.24 "Hg10 mi
12:50 AM21 °FScattered clouds.7 mph63%30.24 "HgN/A
11:50 PM
Sat, Apr 25
23 °FSunny.12 mph58%30.24 "Hg10 mi
10:50 PM21 °FSunny.2 mph68%30.24 "Hg10 mi
9:50 PM23 °FSunny.1 mph58%30.24 "Hg10 mi
8:50 PM25 °FSunny.No wind54%30.27 "Hg10 mi
7:50 PM25 °FSunny.2 mph59%30.27 "Hg10 mi
6:50 PM23 °FSunny.5 mph58%30.27 "Hg10 mi
5:50 PM27 °FSunny.2 mph50%30.30 "Hg10 mi
4:50 PM27 °FSunny.No wind46%30.30 "Hg10 mi
3:50 PM25 °FSunny.5 mph54%30.33 "Hg10 mi
Weather by CustomWeather, © 2015

See weather overviewHow to use our weather pages